Inscriptos

800 Electronico
Fecha Serie Viento Presión Humedad Temperatura
29-03-2019 Final_A
Andarivel Nombre Dia Mes Año Equipo Mejor Marca
Ferris Quintero Andrea 21 9 1987 2.01.46
Da Silva July Ferreira 27 10 1994 2.05.00
Borelli Mariana 30 10 1992 2.07.44
Chiappe Madsen Fiorella 1 1 1996 2.07.45
Escudero Martina 6 12 1996 2.10.78
Acuña Vidal Laura 22 1 2002 2.11.27
Montiel Bianca 25 4 2000 2.11.76
Perez Rocio 18 11 1994 2.11.83
Amarilla Fatima 30 2 1995 2.12.11
Perez Manzini Maria Veronica 28 12 2001 2.12.15
Levaggi Micaela 12 8 1998 2.12.68
Castillo Berdine 11 3 2000 2.12.82
Baiocchi Clara Macarena 8 12 1999 2.13.41
Gallo Nancy Soledad 19 9 1980 2.13.60
Guerrero Antonella 16 7 1996 2.13.83
Hernandez Gisela 25 9 1988 2.14.44
Giovacchini Maria Margarita 17 5 2001 2.14.45
Macadam Ines 24 4 2001 2.14.49
Zapata Alfonzo Macarena 16 12 2000 2.14.55
Cardozo Virginia 04 4 1992 2.14.91
Calahonra Gladys Micaela 20 6 1995 2.14.99
Olivero Delfina 12 7 1999 2.15.33
Camargo Jhoselin Yessica 21 7 1996 2.22.60